EWG2A EDLW-EDDK

Flight info

Callsign EWG2A
Flight time 0h 13m
Altitude 12000
Route GMH1U GMH DCT KOPAG
Aircraft A319/M-SDE3FGHIRWY/LB1

Departure

Time 2026-04-24 23:04
Airport Dortmund Airport (EDLW)

Arrival

Time 2026-04-24 23:18
Airport Cologne Bonn Airport (EDDK)
Time Latitude Longitude Altitude Speed Heading
2026-04-24 22:51 51.51598 7.61366 423 ft 0 kts 149°
2026-04-24 22:59 51.51601 7.61364 421 ft 3 kts 149°
2026-04-24 22:59 51.51616 7.61348 417 ft 3 kts 144°
2026-04-24 22:59 51.51643 7.61318 422 ft 2 kts 153°
2026-04-24 23:00 51.51657 7.61304 415 ft 2 kts 124°
2026-04-24 23:00 51.51661 7.61282 421 ft 0 kts 58°
2026-04-24 23:01 51.51678 7.61330 421 ft 10 kts 60°
2026-04-24 23:01 51.51739 7.61499 417 ft 25 kts 60°
2026-04-24 23:01 51.51838 7.61782 414 ft 29 kts 61°
2026-04-24 23:02 51.51944 7.62088 414 ft 31 kts 60°
2026-04-24 23:02 51.52043 7.62363 408 ft 15 kts 61°
2026-04-24 23:02 51.52095 7.62512 408 ft 17 kts 62°
2026-04-24 23:02 51.52163 7.62713 403 ft 23 kts 60°
2026-04-24 23:03 51.52278 7.62750 401 ft 18 kts 329°
2026-04-24 23:03 51.52342 7.62658 402 ft 8 kts 274°
2026-04-24 23:03 51.52326 7.62625 401 ft 13 kts 237°
2026-04-24 23:03 51.52164 7.62166 410 ft 82 kts 240°
2026-04-24 23:04 51.51773 7.61056 435 ft 143 kts 242°
2026-04-24 23:04 51.51300 7.59616 987 ft 147 kts 244°
2026-04-24 23:04 51.50811 7.58165 1686 ft 149 kts 242°
2026-04-24 23:04 51.50260 7.56638 2013 ft 168 kts 241°
2026-04-24 23:05 51.49608 7.54831 2100 ft 207 kts 241°
2026-04-24 23:05 51.48839 7.52692 2530 ft 234 kts 242°
2026-04-24 23:05 51.47988 7.50317 3131 ft 255 kts 242°
2026-04-24 23:05 51.46833 7.48129 3952 ft 271 kts 215°
2026-04-24 23:06 51.45035 7.47148 4932 ft 279 kts 186°
2026-04-24 23:06 51.43122 7.47700 5885 ft 285 kts 152°
2026-04-24 23:06 51.41521 7.49574 6884 ft 286 kts 135°
2026-04-24 23:06 51.40202 7.51965 7835 ft 288 kts 125°
2026-04-24 23:07 51.39126 7.54687 8770 ft 291 kts 119°
2026-04-24 23:07 51.38086 7.57494 9694 ft 295 kts 121°
2026-04-24 23:07 51.37010 7.60328 10505 ft 303 kts 121°
2026-04-24 23:07 51.35885 7.63273 10786 ft 326 kts 122°
2026-04-24 23:08 51.34657 7.66476 11041 ft 349 kts 122°
2026-04-24 23:08 51.33382 7.69807 11542 ft 361 kts 122°
2026-04-24 23:08 51.32063 7.73268 12036 ft 367 kts 122°
2026-04-24 23:08 51.30713 7.76731 12174 ft 369 kts 125°
2026-04-24 23:09 51.29032 7.79967 12210 ft 391 kts 135°
2026-04-24 23:09 51.26932 7.82835 12205 ft 401 kts 145°
2026-04-24 23:09 51.24497 7.84988 12198 ft 402 kts 158°
2026-04-24 23:09 51.21878 7.86560 12193 ft 401 kts 165°
2026-04-24 23:10 51.19143 7.87352 12199 ft 400 kts 177°
2026-04-24 23:10 51.16403 7.87313 12195 ft 398 kts 187°
2026-04-24 23:10 51.13700 7.86435 12194 ft 396 kts 200°
2026-04-24 23:10 51.11169 7.84719 12198 ft 395 kts 206°
2026-04-24 23:11 51.08692 7.82861 12162 ft 389 kts 207°
2026-04-24 23:11 51.06307 7.80999 11901 ft 376 kts 208°
2026-04-24 23:11 51.04014 7.79046 11369 ft 372 kts 210°
2026-04-24 23:11 51.01789 7.77004 10920 ft 363 kts 212°
2026-04-24 23:12 50.99646 7.74984 10421 ft 356 kts 213°
2026-04-24 23:12 50.97815 7.72604 10296 ft 336 kts 229°
2026-04-24 23:12 50.96570 7.69649 10165 ft 310 kts 246°
2026-04-24 23:12 50.95934 7.66533 10039 ft 288 kts 258°
2026-04-24 23:13 50.95495 7.63542 9903 ft 270 kts 258°
2026-04-24 23:13 50.95086 7.60722 9597 ft 261 kts 258°
2026-04-24 23:13 50.94668 7.57813 8860 ft 281 kts 258°
2026-04-24 23:13 50.94227 7.54721 8089 ft 295 kts 258°
2026-04-24 23:14 50.93766 7.51509 7313 ft 307 kts 258°
2026-04-24 23:14 50.93283 7.48169 6493 ft 311 kts 259°
2026-04-24 23:14 50.92797 7.44831 5658 ft 310 kts 259°
2026-04-24 23:14 50.92316 7.41554 4842 ft 309 kts 259°
2026-04-24 23:15 50.91830 7.38244 4006 ft 307 kts 258°
2026-04-24 23:15 50.91347 7.34972 3278 ft 302 kts 258°
2026-04-24 23:15 50.90881 7.31843 3060 ft 280 kts 258°
2026-04-24 23:15 50.90448 7.28953 2629 ft 267 kts 257°
2026-04-24 23:16 50.90000 7.26086 1836 ft 260 kts 256°
2026-04-24 23:16 50.89364 7.23510 1456 ft 241 kts 244°
2026-04-24 23:16 50.88643 7.21295 1193 ft 210 kts 246°
2026-04-24 23:16 50.88153 7.19385 938 ft 172 kts 246°
2026-04-24 23:17 50.87632 7.17841 693 ft 148 kts 248°
2026-04-24 23:17 50.87225 7.16423 419 ft 137 kts 246°
2026-04-24 23:17 50.86845 7.15135 277 ft 117 kts 244°
2026-04-24 23:17 50.86545 7.14131 259 ft 83 kts 244°
2026-04-24 23:18 50.86386 7.13612 252 ft 17 kts 244°
2026-04-24 23:18 50.86402 7.13430 252 ft 13 kts 304°
2026-04-24 23:18 50.86442 7.13371 251 ft 0 kts 322°
2026-04-24 23:19 50.86451 7.13361 250 ft 4 kts 323°
2026-04-24 23:19 50.86492 7.13361 250 ft 8 kts 29°
2026-04-24 23:19 50.86530 7.13457 249 ft 12 kts 65°
2026-04-24 23:20 50.86570 7.13590 249 ft 13 kts 66°
2026-04-24 23:20 50.86587 7.13652 249 ft 0 kts 65°
2026-04-24 23:23 50.86590 7.13662 249 ft 5 kts 64°
2026-04-24 23:23 50.86627 7.13781 251 ft 19 kts 64°
2026-04-24 23:23 50.86698 7.14012 255 ft 28 kts 64°
2026-04-24 23:23 50.86807 7.14090 255 ft 23 kts 320°
2026-04-24 23:24 50.86975 7.13847 245 ft 36 kts 318°
2026-04-24 23:24 50.87148 7.13600 238 ft 24 kts 317°
2026-04-24 23:24 50.87282 7.13403 233 ft 27 kts 317°
2026-04-24 23:24 50.87375 7.13268 232 ft 14 kts 318°
2026-04-24 23:25 50.87449 7.13160 232 ft 15 kts 317°
2026-04-24 23:25 50.87532 7.13038 232 ft 14 kts 319°
2026-04-24 23:25 50.87546 7.13019 232 ft 5 kts 319°
2026-04-24 23:25 50.87595 7.12952 232 ft 13 kts 317°
2026-04-24 23:26 50.87689 7.12815 232 ft 27 kts 316°
2026-04-24 23:26 50.87780 7.12534 232 ft 18 kts 283°